322  
SXUS55 KTWC 151815  
OSOTWC  
 
WEATHER ROUNDUP FOR SOUTHEAST ARIZONA  
NATIONAL WEATHER SERVICE TUCSON AZ  
1115 AM MST MON JUL 15 2019  
 
AZZ504>506-514-151915-  
LOCATION SKY/WX TMP DP RH WIND PRES REMARKS  
TUCSON MOSUNNY 95 57 27 NW8 29.99F  
DAVIS-MONTHAN SUNNY 95 56 26 W7 29.98  
CHILDRENS PARK N/A N/A N/A 45 S4 PIMA CO DEQ  
ALVERNON/22ND N/A 86 N/A N/A W5 PIMA CO DEQ  
CHERRY/GLENN N/A N/A N/A N/A N/A PIMA CO DEQ  
TANGERINE N/A 93 N/A N/A S4 PIMA CO DEQ  
CONTL RANCH N/A 94 60 33 SE3 PIMA CO DEQ  
GRANT/1ST N/A 86 62 44 S2 PIMA CO DEQ  
CRAYCROFT/22ND N/A 89 60 38 W5 PIMA CO DEQ  
GOLFLINKS/KOLB N/A N/A N/A N/A N/A PIMA CO DEQ  
AJO/12TH N/A 87 62 44 SW2 PIMA CO DEQ  
FAIRGROUNDS N/A 93 N/A N/A W3 PIMA CO DEQ  
SAGUARO N/A 91 62 38 NW3 *SABINO CYN  
SAN CARLOS N/A 98 55 24 S4 *SAN CARLOS  
GREEN VALLEY N/A 91 56 31 E2 PIMA CO DEQ  
HORSE CAMP CYN N/A 92 53 27 W8G15 *ARAVAIPA CYN  
RINCON MTNS NOT AVBL  

 
 
AZZ509>511-151915-  
LOCATION SKY/WX TMP DP RH WIND PRES REMARKS  
SAFFORD SUNNY 98 51 20 W7 29.98F  
STRAY HORSE N/A 81 47 30 SE2 *  
TRAIL CABIN N/A 88 47 24 S3 *N OF GRANVILLE  
BLACK HILLS NOT AVBL  
DRY LAKE N/A 83 46 27 W2 *NATANES MTNS  
NOON CREEK NOT AVBL  
COLUMBINE N/A 73 43 34 N3 *PINALENO MTNS  
GUTHRIE N/A 86 45 24 NE7G11 *SW OF GUTHRIE  

 
 
AZZ502-503-513-151915-  
LOCATION SKY/WX TMP DP RH WIND PRES REMARKS  
NOGALES SUNNY 96 51 21 VRB7 30.07F  
SELLS N/A 96 56 26 SW6G10 *  
SASABE N/A 94 56 28 N5 *ALTAR VLY  
HOPKINS N/A 83 56 40 W5 *SANTA RITA MTNS  
CARR CYN N/A 92 51 25 N3 *W OF HEREFORD  

 
 
AZZ507-508-512-151915-  
LOCATION SKY/WX TMP DP RH WIND PRES REMARKS  
SIERRA VISTA SUNNY 92 51 24 E7 30.15  
DOUGLAS SUNNY 93 52 24 W6 30.09F  
EMPIRE MTNS NOT AVBL  
MULESHOE RANCH N/A 91 56 31 W7G11 *PRESERVE  
HEADQUARTERS NOT AVBL  

 
   
............................NOTES..........................
 
 
THIS IS AN AUTOMATED COLLECTIVE WITH MINIMAL QUALITY CONTROL.  
PIMA CO DEQ SITES HAVE NONSTANDARD WIND SENSOR HEIGHTS.  
PIMA CO DEQ SITES DO NOT REPORT WIND GUSTS.  
* INDICATES WIND SENSORS LOCATED AT 20 FEET INSTEAD OF 33 FEET.   
.............................KEY...........................
 
 
SKY/WX - SKY CONDITION/WEATHER  
TMP - TEMPERATURE IN FAHRENHEIT  
DP - DEWPOINT IN FAHRENHEIT  
RH - RELATIVE HUMIDITY IN PERCENT  
WIND - DIRECTION AND SPEED IN MILES PER HOUR (MPH)  
VRB - VARIABLE WIND DIRECTION  
PRES - MEAN SEA LEVEL PRESSURE IN INCHES OF MERCURY  
F - FALLING PRESSURE R - RISING PRESSURE  
S - STEADY PRESSURE  
VSB - VISIBILITY IN MILES  
HX - HEAT INDEX IN FAHRENHEIT  
WCI - WIND CHILL INDEX IN FAHRENHEIT  
N/A - NOT AVAILABLE  
AFB - AIR FORCE BASE  
DAVIS-MONTHAN IS DAVIS-MONTHAN AIR FORCE BASE  
CYN - CANYON  
MTNS - MOUNTAINS  
NCA - NATIONAL CONSERVATION AREA  
NR - NEAR  
VLY - VALLEY  
CONTL - CONTINENTAL  
PIMA CO DEQ - PIMA COUNTY DEPT OF ENVIRONMENTAL QUALITY  
 
CLICK HERE TO GO TO PREVIOUS BULLETINS.

The Nexlab AZ Page Main Text Page